This is the latest recevied weather packets stored in our database for station/object W7TTE. If no packets are shown the sender has not sent any weather packets the latest 10 day(s).
| Time | Temp. | Humidity | Pressure | Rain* | Wind** | Luminosity | Snow |
|---|---|---|---|---|---|---|---|
| 1777653944 | 25.56° C | 34% | 1014.9 hPa | 0 mm | - | 578 W/m² | - |
| 1777653641 | 26.11° C | 33% | 1014.9 hPa | 0 mm | - | 566 W/m² | - |
| 1777653338 | 25.56° C | 33% | 1014.8 hPa | 0 mm | - | 555 W/m² | - |
| 1777653034 | 25.56° C | 34% | 1015.1 hPa | 0 mm | - | 541 W/m² | - |
| 1777652731 | 25° C | 35% | 1015.1 hPa | 0 mm | - | 526 W/m² | - |
| 1777652427 | 25.56° C | 35% | 1014.9 hPa | 0 mm | - | 512 W/m² | - |
| 1777652125 | 25° C | 35% | 1014.9 hPa | 0 mm | - | 499 W/m² | - |
| 1777651821 | 24.44° C | 37% | 1015 hPa | 0 mm | - | 485 W/m² | - |
| 1777651519 | 24.44° C | 37% | 1015 hPa | 0 mm | - | 469 W/m² | - |
| 1777651215 | 24.44° C | 38% | 1014.9 hPa | 0 mm | - | 453 W/m² | - |
| 1777650912 | 23.89° C | 38% | 1015 hPa | 0 mm | - | 439 W/m² | - |
| 1777650609 | 23.89° C | 38% | 1014.9 hPa | 0 mm | - | 425 W/m² | - |
| 1777650306 | 23.89° C | 39% | 1014.7 hPa | 0 mm | - | 408 W/m² | - |
| 1777650003 | 23.89° C | 39% | 1014.8 hPa | 0 mm | - | 392 W/m² | - |
| 1777649701 | 23.89° C | 38% | 1014.7 hPa | 0 mm | - | 377 W/m² | - |
| 1777649396 | 23.33° C | 39% | 1014.8 hPa | 0 mm | - | 361 W/m² | - |
| 1777649094 | 23.33° C | 40% | 1014.7 hPa | 0 mm | - | 346 W/m² | - |
| 1777648791 | 23.33° C | 39% | 1014.6 hPa | 0 mm | - | 330 W/m² | - |
| 1777648488 | 23.33° C | 39% | 1014.6 hPa | 0 mm | - | 313 W/m² | - |
| 1777648184 | 23.33° C | 39% | 1014.4 hPa | 0 mm | - | 297 W/m² | - |
| 1777647880 | 22.78° C | 40% | 1014.6 hPa | 0 mm | - | 281 W/m² | - |
| 1777647576 | 23.33° C | 39% | 1014.5 hPa | 0 mm | - | 265 W/m² | - |
| 1777647273 | 22.78° C | 39% | 1014.5 hPa | 0 mm | - | 250 W/m² | - |
| 1777646971 | 22.22° C | 39% | 1014.5 hPa | 0 mm | - | 234 W/m² | - |
| 1777646667 | 21.67° C | 38% | 1014.4 hPa | 0 mm | - | 220 W/m² | - |
* Rain latest hour (hover to see other rain measurements)
** Current wind speed in m/s (hover to see current wind gust speed)